TimeEST,TemperatureF,Dew PointF,Humidity,Sea Level PressureIn,VisibilityMPH,Wind Direction,Wind SpeedMPH,Gust SpeedMPH,PrecipitationIn,Events,Conditions,WindDirDegrees,DateUTC
12:21 AM,42.8,41.0,93,30.04,7.0,SSW,4.6,-,0.00,,Light Drizzle,200,2012-12-08 05:21:00
12:54 AM,43.0,41.0,93,30.04,6.0,South,3.5,-,0.00,,Light Drizzle,190,2012-12-08 05:54:00
1:03 AM,42.8,41.0,93,30.04,6.0,Calm,Calm,-,0.00,,Light Drizzle,0,2012-12-08 06:03:00
1:11 AM,42.8,41.0,93,30.04,6.0,Calm,Calm,-,0.00,,Light Drizzle,0,2012-12-08 06:11:00
1:34 AM,42.8,41.0,93,30.04,5.0,SSE,4.6,-,0.00,,Light Drizzle,150,2012-12-08 06:34:00
1:45 AM,42.8,41.0,93,30.03,5.0,South,4.6,-,0.00,,Light Drizzle,170,2012-12-08 06:45:00
1:54 AM,43.0,41.0,93,30.04,5.0,South,4.6,-,0.00,,Overcast,170,2012-12-08 06:54:00
2:34 AM,42.8,41.0,93,30.03,5.0,South,4.6,-,N/A,,Overcast,170,2012-12-08 07:34:00
2:54 AM,43.0,41.0,93,30.02,5.0,SSE,3.5,-,N/A,,Overcast,150,2012-12-08 07:54:00
3:54 AM,43.0,41.0,93,30.02,4.0,South,4.6,-,0.01,Rain,Light Rain,170,2012-12-08 08:54:00
4:36 AM,42.8,41.0,93,30.00,3.0,SE,3.5,-,0.03,Rain,Light Rain,130,2012-12-08 09:36:00
4:54 AM,43.0,41.0,93,30.00,3.0,SE,4.6,-,0.05,Rain,Light Rain,130,2012-12-08 09:54:00
5:18 AM,42.8,42.8,100,30.00,3.0,SE,3.5,-,0.01,Rain,Light Rain,130,2012-12-08 10:18:00
5:26 AM,42.8,42.8,100,30.00,3.0,ESE,4.6,-,0.02,Rain,Light Rain,120,2012-12-08 10:26:00
5:54 AM,43.0,42.1,97,30.00,3.0,Calm,Calm,-,0.04,Rain,Light Rain,0,2012-12-08 10:54:00
6:28 AM,44.6,42.8,93,30.01,2.5,ESE,3.5,-,0.04,Rain,Light Rain,110,2012-12-08 11:28:00
6:54 AM,44.1,42.1,93,30.00,2.0,Calm,Calm,-,0.07,Rain,Light Rain,0,2012-12-08 11:54:00
7:04 AM,44.6,42.8,93,30.00,3.0,ESE,3.5,-,0.00,Rain,Light Rain,110,2012-12-08 12:04:00
7:18 AM,44.6,42.8,93,29.99,1.0,East,3.5,-,0.01,Rain,Light Rain,80,2012-12-08 12:18:00
7:24 AM,44.6,42.8,93,29.99,1.0,East,4.6,-,0.01,Rain,Light Rain,80,2012-12-08 12:24:00
7:27 AM,44.6,42.8,93,29.99,0.5,ENE,4.6,-,0.01,Rain,Light Rain,70,2012-12-08 12:27:00
7:54 AM,44.1,43.0,96,29.98,0.5,ENE,5.8,-,0.01,Rain,Light Rain,60,2012-12-08 12:54:00
8:01 AM,44.6,42.8,93,29.98,2.5,ENE,4.6,-,0.00,,Overcast,60,2012-12-08 13:01:00
8:37 AM,44.6,42.8,93,29.97,0.5,ENE,4.6,-,0.00,Rain,Light Rain,60,2012-12-08 13:37:00
8:54 AM,45.0,43.0,93,29.96,0.5,ENE,6.9,-,0.01,Rain,Light Rain,60,2012-12-08 13:54:00
9:01 AM,44.6,42.8,93,29.96,0.5,ENE,6.9,-,0.00,Rain,Light Rain,60,2012-12-08 14:01:00
9:54 AM,44.1,43.0,96,29.94,0.5,NE,9.2,-,0.09,Rain,Rain,50,2012-12-08 14:54:00
10:22 AM,44.6,42.8,93,29.94,1.0,North,9.2,-,0.02,,Overcast,10,2012-12-08 15:22:00
10:54 AM,45.0,43.0,93,29.92,2.0,North,9.2,-,0.03,Rain,Light Rain,10,2012-12-08 15:54:00
11:54 AM,45.0,43.0,93,29.89,2.0,North,9.2,-,0.03,,Light Drizzle,360,2012-12-08 16:54:00
12:54 PM,44.1,42.1,93,29.87,2.0,NNW,6.9,-,0.00,,Overcast,340,2012-12-08 17:54:00
1:47 PM,42.8,41.0,93,29.87,1.5,NNW,6.9,-,0.00,,Light Drizzle,340,2012-12-08 18:47:00
1:54 PM,43.0,41.0,93,29.87,1.5,NNW,4.6,-,0.00,,Light Drizzle,340,2012-12-08 18:54:00
2:12 PM,42.8,41.0,93,29.87,2.0,North,4.6,-,0.00,,Light Drizzle,10,2012-12-08 19:12:00
2:54 PM,43.0,41.0,93,29.88,2.0,NNW,5.8,-,0.00,,Overcast,340,2012-12-08 19:54:00
2:58 PM,42.8,41.0,93,29.88,4.0,North,4.6,-,N/A,,Overcast,350,2012-12-08 19:58:00
3:27 PM,42.8,41.0,93,29.88,5.0,North,4.6,-,N/A,,Overcast,360,2012-12-08 20:27:00
3:54 PM,43.0,41.0,93,29.89,5.0,Calm,Calm,-,N/A,,Overcast,0,2012-12-08 20:54:00
4:54 PM,43.0,41.0,93,29.90,6.0,WNW,3.5,-,N/A,,Overcast,290,2012-12-08 21:54:00
5:54 PM,43.0,41.0,93,29.90,4.0,Calm,Calm,-,N/A,,Overcast,0,2012-12-08 22:54:00
6:54 PM,43.0,42.1,97,29.91,3.0,Calm,Calm,-,N/A,,Overcast,0,2012-12-08 23:54:00
7:54 PM,43.0,41.0,93,29.93,7.0,SSW,5.8,-,N/A,,Overcast,210,2012-12-09 00:54:00
8:54 PM,43.0,42.1,97,29.92,7.0,SSW,3.5,-,N/A,,Overcast,200,2012-12-09 01:54:00
9:54 PM,44.1,42.1,93,29.94,7.0,SW,6.9,-,N/A,,Overcast,230,2012-12-09 02:54:00
10:38 PM,46.4,42.8,87,29.93,8.0,WSW,9.2,-,N/A,,Mostly Cloudy,240,2012-12-09 03:38:00
10:54 PM,46.0,43.0,89,29.94,8.0,WSW,9.2,-,N/A,,Mostly Cloudy,240,2012-12-09 03:54:00
11:54 PM,46.9,44.1,90,29.95,9.0,WSW,11.5,-,N/A,,Mostly Cloudy,240,2012-12-09 04:54:00